Overview Statistics Trail Chart Weather Telemetry Raw packets
 

This is the latest recevied weather packets stored in our database for station/object KJ6HT. If no packets are shown the sender has not sent any weather packets the latest 10 day(s).

<< 3 4 5 6 7 8 9 >>
Time Temp. Humidity Pressure Rain* Wind** Luminosity Snow
1788578106 23.33° C 56% 1010.6 hPa 0 mm - - -
1788577206 23.33° C 54% 1010.4 hPa 0 mm - - -
1788576306 23.89° C 51% 1010.2 hPa 0 mm - - -
1788575405 24.44° C 49% 1010.1 hPa 0 mm - - -
1788574503 25° C 48% 1010.1 hPa 0 mm - - -
1788573603 25° C 47% 1010.1 hPa 0 mm - - -
1788572702 25.56° C 47% 1010 hPa 0 mm - - -
1788571803 26.11° C 46% 1009.9 hPa 0 mm - - -
1788570962 26.67° C 46% 1010 hPa 0 mm - - -
1788570069 27.78° C 46% 1010.1 hPa 0 mm - - -
1788569181 27.78° C 46% 1010 hPa 0 mm - - -
1788568258 28.33° C 47% 1010 hPa 0 mm - - -
1788567360 28.89° C 47% 1009.9 hPa 0 mm - - -
1788566469 29.44° C 46% 1009.9 hPa 0 mm - - -
1788565555 30° C 45% 1009.9 hPa 0 mm - - -
1788564654 30° C 44% 1009.8 hPa 0 mm - - -
1788563753 30.56° C 42% 1009.8 hPa 0 mm - - -
1788562868 31.11° C 41% 1010 hPa 0 mm - - -
1788561951 30.56° C 40% 1010 hPa 0 mm - - -
1788561052 31.11° C 39% 1010 hPa 0 mm - - -
1788560148 31.11° C 39% 1010.1 hPa 0 mm - - -
1788559248 31.11° C 38% 1010.2 hPa 0 mm - - -
1788558348 31.11° C 38% 1010.3 hPa 0 mm - - -
1788557444 30.56° C 41% 1010.4 hPa 0 mm - - -
1788556540 30.56° C 40% 1010.7 hPa 0 mm - - -

* Rain latest hour (hover to see other rain measurements)
** Current wind speed in m/s (hover to see current wind gust speed)